F1DKL-13 Weather Reports


Display with metric or nautical units.
time (UTC)temp
F
wind
direction
speed
MPH
gust
MPH
rain 1hr
in
rain 24hr
in
rain mn
in
humidity
%
barometer
mb
20260505065504 51 0 0.0 0.0 0.00 2.36 0.99 98 1018.3
20260505003504 49 0 0.0 0.0 0.12 2.03 0.41 98 1018.3
20260505003004 49 0 0.0 0.0 0.16 2.03 0.41 98 1018.3
20260505002504 49 0 0.0 0.0 0.16 2.03 0.41 98 1018.3
20260505002004 49 0 0.0 0.0 0.17 1.99 0.37 98 1018.3
20260505001504 49 0 0.0 0.0 0.17 1.99 0.37 98 1018.3
20260505001004 49 0 0.0 0.0 0.17 1.99 0.37 98 1018.3
20260505000504 49 0 0.0 0.0 0.17 1.99 0.37 98 1018.3
20260505000004 49 0 0.0 0.0 0.13 1.95 0.33 98 1018.3
20260504235504 49 0 0.0 0.0 0.17 1.95 0.33 98 1018.3
20260504235004 49 0 0.0 0.0 0.17 1.95 0.33 98 1018.3
20260504234504 49 0 0.0 0.0 0.13 1.91 0.29 98 1018.3
20260504234004 49 0 0.0 0.0 0.13 1.91 0.29 98 1019.3
20260504233504 49 0 0.0 0.0 0.17 1.91 0.29 98 1019.3
20260504233004 49 0 0.0 0.0 0.13 1.87 0.25 98 1019.3
20260504232504 49 0 0.0 0.0 0.13 1.87 0.25 98 1019.3
20260504232004 49 0 0.0 0.0 0.12 1.82 0.20 98 1019.3
20260504231504 49 0 0.0 0.0 0.16 1.82 0.20 98 1019.3
20260504231004 49 0 0.0 0.0 0.16 1.82 0.20 98 1019.3
20260504230504 49 0 0.0 0.0 0.20 1.82 0.20 98 1019.3
20260504230004 49 0 0.0 0.0 0.20 1.82 0.20 98 1019.3
20260504225504 49 0 0.0 0.0 0.20 1.78 0.16 98 1019.3
20260504225004 49 0 0.0 0.0 0.20 1.78 0.16 98 1019.3
20260504224504 49 0 0.0 0.0 0.25 1.78 0.16 98 1019.3
20260504224004 49 0 0.0 0.0 0.25 1.78 0.16 98 1019.3
20260504223504 49 0 0.0 0.0 0.21 1.74 0.12 98 1019.3
20260504223004 49 0 0.0 0.0 0.25 1.74 0.12 98 1019.3
20260504222504 49 0 0.0 0.0 0.25 1.74 0.12 98 1019.3
20260504222004 49 0 0.0 0.0 0.21 1.70 0.08 98 1019.3
20260504221504 49 0 0.0 0.0 0.17 1.66 0.04 98 1019.3
20260504221004 50 0 0.0 0.0 0.21 1.66 0.04 98 1019.3
20260504220504 49 0 0.0 0.0 0.17 1.62 0.00 98 1019.3
20260504220004 50 0 0.0 0.0 0.17 1.62 0.00 98 1019.3
20260504215504 50 0 0.0 0.0 0.17 1.58 1.58 98 1019.3
20260504215004 50 0 0.0 0.0 0.21 1.58 1.58 98 1019.3
20260504214504 50 0 0.0 0.0 0.20 1.53 1.53 98 1019.3
20260504214004 50 0 0.0 0.0 0.20 1.53 1.53 98 1020.4
20260504213504 50 0 0.0 0.0 0.20 1.53 1.53 98 1020.4
20260504213004 50 0 0.0 0.0 0.16 1.49 1.49 98 1020.4
20260504212504 50 0 0.0 0.0 0.21 1.49 1.49 98 1020.4
20260504212004 50 0 0.0 0.0 0.21 1.49 1.49 98 1020.4
20260504211504 50 0 0.0 0.0 0.21 1.49 1.49 98 1020.4
20260504211004 50 0 0.0 0.0 0.17 1.45 1.45 98 1020.4
20260504210504 50 0 0.0 0.0 0.17 1.45 1.45 98 1020.4
20260504210004 50 0 0.0 0.0 0.17 1.45 1.45 98 1020.4
20260504205504 51 0 0.0 0.0 0.13 1.41 1.41 98 1020.4
20260504205004 51 0 0.0 0.0 0.09 1.37 1.37 98 1020.4
20260504204504 51 0 0.0 0.0 0.05 1.33 1.33 98 1020.4
20260504204004 51 0 0.0 0.0 0.05 1.33 1.33 98 1020.4
20260504203504 51 0 0.0 0.0 0.05 1.33 1.33 98 1020.4
20260504203004 51 0 0.0 0.0 0.05 1.33 1.33 98 1020.4
20260504202504 51 0 0.0 0.0 0.00 1.28 1.28 98 1020.4
20260504202004 51 0 0.0 0.0 0.00 1.28 1.28 98 1020.4
20260504201504 51 0 0.0 0.0 0.00 1.28 1.28 98 1020.4
20260504201004 51 0 0.0 0.0 0.00 1.28 1.28 98 1020.4
20260504200504 51 0 0.0 0.0 0.00 1.28 1.28 98 1020.4
20260504200004 51 0 0.0 0.0 0.00 1.28 1.28 98 1020.4
20260504195504 51 0 0.0 0.0 0.00 1.28 1.28 98 1020.4
20260504195004 51 0 0.0 0.0 0.00 1.28 1.28 98 1020.4
20260504194504 51 0 0.0 0.0 0.00 1.28 1.28 98 1020.4
20260504194004 51 0 0.0 0.0 0.00 1.28 1.28 98 1020.4
20260504193504 51 0 0.0 0.0 0.00 1.28 1.28 98 1020.4
20260504193004 51 0 0.0 0.0 0.03 1.28 1.28 98 1020.4
20260504192504 52 0 0.0 0.0 0.03 1.28 1.28 98 1020.4
20260504192004 52 0 0.0 0.0 0.03 1.28 1.28 98 1020.4
20260504191504 52 0 0.0 0.0 0.03 1.28 1.28 98 1020.4
20260504191004 52 0 0.0 0.0 0.03 1.28 1.28 98 1020.4
20260504190504 52 0 0.0 0.0 0.03 1.28 1.28 98 1020.4
20260504190004 52 0 0.0 0.0 0.03 1.28 1.28 98 1020.4
20260504185504 52 0 0.0 0.0 0.03 1.28 1.28 98 1020.4
20260504185004 52 0 0.0 0.0 0.03 1.28 1.28 98 1020.4
20260504184504 53 0 0.0 0.0 0.03 1.28 1.28 98 1020.4
20260504184004 53 0 0.0 0.0 0.08 1.28 1.28 98 1020.4
20260504183504 53 0 0.0 0.0 0.08 1.28 1.28 98 1020.4
20260504183004 53 0 0.0 0.0 0.09 1.25 1.25 98 1020.4
20260504182504 53 0 0.0 0.0 0.09 1.25 1.25 98 1020.4
20260504182005 53 0 0.0 0.0 0.09 1.25 1.25 98 1020.4
20260504181504 53 0 0.0 0.0 0.09 1.25 1.25 98 1020.4
20260504181004 53 0 0.0 0.0 0.09 1.25 1.25 98 1021.5
20260504180504 53 0 0.0 0.0 0.09 1.25 1.25 98 1021.5
20260504180004 53 0 0.0 0.0 0.13 1.25 1.25 98 1021.5
20260504175504 53 0 0.0 0.0 0.13 1.25 1.25 98 1020.4
20260504175004 53 0 0.0 0.0 0.13 1.25 1.25 98 1020.4
20260504174504 53 0 0.0 0.0 0.17 1.25 1.25 98 1020.4
20260504174004 53 0 0.0 0.0 0.12 1.20 1.20 98 1020.4
20260504173504 53 0 0.0 0.0 0.12 1.20 1.20 98 1020.4
20260504173004 53 0 0.0 0.0 0.08 1.16 1.16 98 1020.4
20260504172504 53 0 0.0 0.0 0.08 1.16 1.16 98 1019.3
20260504172004 53 0 0.0 0.0 0.08 1.16 1.16 98 1019.3
20260504171504 54 0 0.0 0.0 0.08 1.16 1.16 98 1019.3
20260504171004 54 0 0.0 0.0 0.08 1.16 1.16 98 1019.3
20260504170504 54 0 0.0 0.0 0.08 1.16 1.16 98 1019.3
20260504151004 53 0 0.0 0.0 0.00 1.08 1.08 98 1021.5
20260504150504 53 0 0.0 0.0 0.00 1.08 1.08 98 1021.5
20260504141004 54 0 0.0 0.0 0.25 1.08 1.08 98 1021.5
20260504140504 54 0 0.0 0.0 0.25 1.08 1.08 98 1021.5
20260504130504 52 0 0.0 0.0 0.08 0.83 0.83 98 1022.6
20260504110504 52 0 0.0 0.0 0.05 0.71 0.71 97 1022.6
20260504100504 50 0 0.0 0.0 0.12 0.66 0.66 80 1022.6
20260504082004 49 0 0.0 0.0 0.08 0.41 0.41 76 1024.7
20260504081503 49 0 0.0 0.0 0.08 0.41 0.41 76 1024.7
20260504081003 49 0 0.0 0.0 0.08 0.41 0.41 75 1023.6
20260504080503 49 0 0.0 0.0 0.12 0.41 0.41 74 1023.6